Temperature
23 23 23 23 20 20 23 24 25 26 26 26 26 25 23 22 22 21 21 21 20 20 20 20 20 20 20 20 20 20 19 19 19 19 19 19 19 19 19 19 19 19 19 19 19 19 19 18 18
24 24 23 23 20 21 24 25 25 27 27 26 26 25 23 22 22 21 20 20 20 20 20 20 20 19 19 19 19 20 19 19 19 19 19 19 19 19 19 19 19 19 19 19 19 19 19 18 18
24 24 23 21 22 22 25 25 26 28 28 27 26 25 24 22 22 21 21 20 20 20 20 20 20 19 19 19 19 19 19 19 19 19 19 19 19 19 19 19 19 19 19 18 19 19 19 19 18
24 24 23 21 23 24 25 26 27 27 27 26 25 24 23 22 22 22 21 20 20 20 20 20 20 19 19 19 19 19 19 19 19 19 19 19 18 18 18 18 18 18 18 18 18 18 19 19 19
24 23 20 21 22 24 25 27 28 27 26 25 24 22 22 22 22 21 21 20 20 20 20 20 19 19 19 19 19 19 19 19 19 19 19 18 18 18 18 18 18 18 18 18 18 18 18 19 18
24 21 20 21 22 24 26 28 28 26 25 25 24 22 22 22 21 21 21 21 20 20 20 20 19 19 19 19 19 19 19 19 19 19 18 18 18 18 18 18 18 18 18 18 18 18 18 18 18
23 20 21 21 22 24 26 28 28 26 25 25 24 22 21 21 21 21 21 21 20 20 20 20 19 19 19 19 19 19 19 19 19 18 18 18 18 18 18 18 18 18 18 18 18 18 18 18 18
25 20 21 21 22 24 27 29 29 28 27 26 25 22 22 22 21 21 21 21 20 20 20 20 20 19 19 19 19 19 19 19 18 18 18 18 18 18 18 18 18 18 18 18 18 18 18 18 18
25 20 20 21 22 23 26 28 29 29 28 27 26 25 24 22 21 21 21 20 20 20 20 20 20 20 19 19 19 19 19 19 18 18 18 18 18 18 18 18 18 18 18 18 17 17 17 17 17
23 21 22 22 22 23 26 27 29 28 26 25 25 24 23 22 22 21 21 21 20 20 20 20 20 20 19 19 19 19 19 19 19 18 18 18 18 18 18 18 18 18 18 18 17 17 17 17 17
24 22 23 23 24 24 25 27 29 28 25 24 24 23 23 22 22 22 22 22 21 21 20 20 20 20 20 19 19 19 19 19 19 18 18 18 18 18 18 18 18 18 18 17 17 17 17 17 17
25 24 25 25 25 26 26 27 28 28 28 27 26 25 23 23 22 23 22 22 21 21 21 21 20 20 20 20 19 19 19 19 19 18 17 17 18 17 18 18 18 18 17 17 17 17 17 17 17
24 25 26 26 26 26 27 27 27 28 28 27 26 25 24 24 24 24 23 23 22 21 21 21 21 20 20 20 19 19 19 19 19 18 17 17 17 17 17 18 18 17 17 17 17 17 17 17 17
24 25 25 26 26 26 26 26 26 27 28 26 25 25 25 25 25 24 23 23 22 22 22 21 21 21 20 20 20 19 19 19 19 18 18 17 17 17 17 17 17 17 17 17 17 17 17 17 17
25 24 24 23 23 24 25 24 25 26 26 26 24 25 25 25 25 24 24 24 23 22 22 22 22 21 21 20 20 20 19 19 19 18 18 17 17 17 17 17 17 17 17 17 17 17 17 17 17
23 23 22 22 22 22 23 23 23 23 24 25 25 25 25 26 25 25 25 24 24 23 23 22 22 21 21 21 20 20 20 19 19 18 18 18 17 17 17 17 17 17 17 17 17 17 17 17 17
21 21 21 22 21 21 21 22 21 22 23 23 23 24 25 26 26 25 25 25 24 24 23 23 22 22 21 21 20 20 20 19 19 19 18 18 18 18 17 17 17 17 17 17 17 17 17 17 16
20 20 21 21 20 21 20 20 20 21 22 22 22 24 25 25 26 26 25 25 25 24 24 23 22 22 21 21 20 20 19 19 19 19 18 18 18 18 17 17 17 17 17 17 17 17 17 17 16
21 20 20 20 21 20 19 19 20 21 21 21 22 22 23 25 26 26 26 25 25 24 24 23 22 22 21 21 20 20 19 19 19 19 18 18 18 18 18 18 17 17 17 17 17 17 17 16 16
21 20 19 20 20 20 19 19 20 20 21 21 21 22 23 24 25 26 26 25 25 25 24 23 22 22 21 21 20 20 19 19 19 18 18 18 18 18 18 17 17 17 17 17 17 17 17 16 16
20 19 19 19 19 19 18 17 18 20 20 21 21 22 23 24 25 25 25 25 25 25 24 23 22 22 21 20 20 19 19 19 18 18 18 18 18 17 17 17 17 17 17 17 17 17 17 16 16
19 20 20 19 18 16 17 16 17 18 18 19 20 21 22 24 24 24 25 25 25 24 24 23 22 22 21 20 20 19 19 18 18 18 18 17 17 17 17 17 17 17 17 17 17 17 16 16 16
20 20 19 18 17 16 16 16 16 17 18 19 20 21 22 23 23 23 23 23 23 23 23 23 22 21 21 20 20 19 18 18 18 18 17 17 17 17 17 17 16 16 16 16 16 16 16 16 16
19 18 17 15 15 15 16 15 16 16 17 18 19 20 21 22 22 21 21 21 21 22 22 22 22 22 21 21 20 19 18 18 18 18 18 18 17 17 17 17 16 16 16 15 15 16 16 16 16
18 16 15 15 15 15 17 16 15 15 16 16 16 17 19 21 21 20 20 20 20 20 20 21 22 22 22 21 20 19 18 18 18 18 17 17 17 17 17 16 16 16 16 15 15 15 15 16 16
18 16 15 15 15 15 17 16 15 15 15 15 15 15 16 18 19 19 19 19 19 19 20 21 21 21 21 21 19 18 18 18 18 17 17 17 17 16 16 16 16 15 15 15 15 15 15 15 15
16 15 15 14 15 15 16 16 16 15 15 15 15 14 14 15 17 18 18 18 19 19 20 20 20 21 21 20 19 18 18 18 17 17 17 17 16 16 16 16 15 15 15 15 15 15 15 15 15
14 14 13 13 14 15 15 14 14 14 13 14 14 14 14 14 15 16 17 17 18 19 20 20 20 20 20 20 19 18 18 18 18 17 17 17 17 16 16 16 15 15 15 15 15 15 15 15 14
13 12 12 12 13 14 14 14 13 13 13 13 13 13 14 14 15 16 17 17 19 20 20 20 20 20 20 19 19 18 18 18 18 17 17 17 17 16 16 16 15 15 15 15 15 15 15 14 14
13 12 11 12 12 13 13 13 13 13 13 13 13 13 14 15 16 17 18 18 19 20 20 20 20 20 20 19 19 19 18 18 18 18 17 17 17 16 16 15 15 15 15 15 15 15 14 14 14
Wind_Speed
9 6 2 3 5 6 2 2 4 2 3 5 8 11 9 6 4 5 5 13 16 16 15 17 16 15 14 14 14 13 13 12 11 12 13 13 13 13 12 12 12 12 12 13 13 13 12 11 10
5 3 2 4 6 4 1 3 5 3 6 10 9 8 8 5 4 7 7 15 17 16 15 16 16 15 14 14 14 13 12 12 12 13 13 13 12 12 13 12 12 12 13 13 13 14 13 11 10
4 1 3 4 2 4 3 4 5 2 6 8 5 5 6 7 5 5 11 18 16 14 15 16 17 15 15 14 14 13 13 12 12 12 13 13 12 12 13 12 12 13 13 12 12 12 12 11 9
2 4 5 5 2 4 5 5 4 5 6 6 7 6 5 4 6 9 18 18 16 14 14 16 17 15 15 14 14 14 13 12 12 12 13 13 12 12 12 12 12 13 13 12 11 10 10 10 9
3 5 6 4 5 5 3 3 4 5 5 5 7 6 4 3 11 18 18 16 14 12 12 15 16 15 14 14 14 14 13 12 12 12 12 13 12 11 12 12 11 11 11 11 10 8 7 7 7
4 5 4 2 6 6 4 1 4 6 8 7 8 7 4 6 11 15 16 14 14 13 11 13 15 14 13 13 13 14 14 13 13 13 13 13 12 11 11 11 11 10 10 10 9 7 5 4 4
5 5 2 3 6 6 4 3 5 7 8 8 10 7 6 7 10 14 15 14 12 12 10 9 11 12 13 13 13 14 14 14 13 13 13 13 12 11 11 11 10 10 10 10 8 6 4 2 2
5 5 3 2 5 6 4 2 5 7 6 10 8 10 8 10 12 14 14 12 12 10 10 8 10 10 10 11 13 15 15 14 14 14 14 13 12 11 10 10 10 11 11 10 8 5 2 1 2
5 5 2 2 4 7 5 0 1 4 6 5 5 7 12 16 15 15 12 7 9 10 8 9 8 9 10 11 13 14 15 15 14 13 14 13 10 10 9 10 10 10 11 10 8 5 3 2 2
5 3 5 4 5 6 7 2 2 5 6 5 8 9 16 17 16 16 15 12 11 11 10 8 9 8 9 10 11 11 11 13 12 11 12 11 10 9 9 11 10 10 9 8 6 4 3 4 4
4 5 5 7 10 6 5 5 1 6 5 8 15 18 18 17 17 17 16 15 14 14 13 12 11 9 8 6 8 8 8 10 10 11 12 11 8 8 8 7 7 7 7 4 3 3 4 5 3
2 5 5 6 7 4 4 4 3 4 7 14 20 23 21 19 18 18 17 16 13 14 15 15 14 12 9 7 6 7 6 6 6 10 12 9 5 5 6 5 5 5 5 4 1 2 2 2 6
2 3 3 3 3 4 6 6 4 5 3 15 19 21 21 20 18 16 16 16 14 16 15 16 15 14 11 9 6 6 5 7 8 10 12 11 6 6 4 4 6 7 7 4 1 1 3 6 7
5 6 7 6 6 4 6 8 5 7 4 16 20 20 20 21 20 15 14 15 15 17 17 16 16 15 13 10 8 8 6 8 8 9 12 15 12 7 5 5 4 6 8 6 4 4 4 5 5
5 7 8 6 7 5 4 8 7 7 7 10 20 20 20 19 18 17 18 18 18 18 17 17 18 16 15 12 10 8 8 8 6 7 12 15 15 12 8 7 6 6 10 6 5 5 5 6 5
5 4 4 4 9 8 2 9 3 8 8 3 10 16 18 18 19 18 18 18 18 17 18 18 17 16 15 12 10 7 7 7 6 8 9 12 14 15 10 8 8 9 8 5 5 5 5 5 4
4 3 4 4 5 5 4 6 6 7 9 7 2 8 13 16 16 15 18 19 19 18 18 17 15 17 15 12 9 8 6 6 5 7 6 7 9 12 9 7 7 9 5 5 7 5 5 4 4
3 3 4 5 5 4 4 7 10 5 6 6 6 5 6 11 16 17 18 19 18 17 17 16 13 15 12 9 6 5 5 5 3 4 5 5 5 6 6 4 6 6 6 6 6 6 4 4 5
3 3 5 5 3 3 6 10 13 8 5 5 6 7 8 8 10 15 19 19 16 15 15 14 13 13 11 7 6 6 5 4 4 4 5 5 4 4 4 3 5 6 7 8 8 5 5 3 3
3 4 5 5 2 4 7 11 12 10 6 4 4 6 9 9 5 10 15 17 16 16 15 14 13 13 12 8 6 4 4 4 4 4 4 6 6 6 5 6 4 5 6 7 7 6 5 3 3
5 6 6 6 3 3 5 9 8 6 4 5 6 5 5 6 6 9 13 14 15 15 16 13 11 11 10 9 7 5 4 4 3 3 4 4 6 6 5 6 5 4 5 7 8 8 8 5 3
7 8 8 5 1 4 2 6 9 7 7 6 6 5 3 4 2 6 11 13 14 14 13 13 12 11 9 9 9 8 6 5 5 4 5 5 5 5 5 5 6 6 5 6 7 7 6 7 5
4 2 3 3 3 2 2 4 9 7 8 8 7 6 2 1 1 3 7 11 10 12 13 12 11 10 8 8 9 8 5 4 3 3 4 5 4 4 4 5 5 6 5 6 6 6 6 6 6
4 6 6 5 4 2 5 5 5 8 11 13 11 9 4 3 5 5 6 9 10 9 8 9 10 8 7 8 8 8 7 6 5 4 4 4 2 2 3 4 5 6 5 6 7 7 8 7 7
8 6 5 5 2 5 4 3 3 11 14 16 17 16 10 2 9 10 9 8 9 8 5 5 8 8 7 7 7 7 7 7 6 5 5 4 3 3 3 3 4 4 5 6 6 6 7 8 9
2 5 4 3 4 4 3 1 4 12 14 17 19 20 18 8 4 7 9 9 8 8 7 6 7 7 7 7 7 6 6 5 4 6 5 5 4 3 3 3 3 4 4 5 5 5 6 7 8
4 1 3 4 3 4 4 1 5 17 20 21 21 22 21 16 10 6 5 5 6 8 9 9 8 6 7 7 6 5 6 5 5 4 4 4 4 3 4 3 3 3 3 4 4 4 5 5 6
4 2 3 1 3 3 1 5 10 18 19 19 20 20 18 16 12 9 7 2 2 5 6 7 7 7 7 6 6 5 6 6 5 5 5 5 5 4 5 3 3 2 2 2 3 2 3 5 5
7 5 3 1 2 1 2 4 9 13 14 15 16 16 15 14 10 7 4 3 7 6 5 6 8 7 7 6 5 4 4 5 5 5 6 6 5 6 6 5 4 4 4 3 3 3 3 4 4
3 2 2 1 2 2 3 4 8 11 12 12 14 15 15 13 8 5 6 8 9 8 6 6 7 8 7 6 5 4 4 5 5 5 6 6 6 6 6 5 5 5 5 5 4 4 3 3 4
Wind_Direction
309 311 128 90 51 51 87 174 136 95 62 71 93 95 95 88 111 139 143 149 142 149 161 161 157 154 148 142 137 132 130 131 129 124 121 120 116 112 109 106 103 100 99 99 97 96 96 100 103
318 321 102 62 73 71 42 183 117 125 131 117 90 95 92 77 97 114 123 145 145 150 157 160 161 160 155 150 144 137 133 132 128 126 126 124 122 120 115 112 110 107 105 103 101 100 100 99 98
304 327 64 55 76 153 167 204 167 124 113 126 94 70 90 124 121 124 145 144 144 150 154 161 164 165 162 157 151 146 140 136 132 130 129 128 127 123 118 116 115 113 112 107 105 104 102 99 95
28 41 48 53 317 237 180 196 164 113 87 92 99 64 57 125 144 134 142 145 146 150 154 162 165 167 166 162 157 154 150 146 142 139 136 135 135 130 123 122 120 118 118 115 110 105 101 99 95
82 70 48 10 291 275 234 184 131 120 116 99 96 86 52 58 121 134 145 146 145 148 154 163 166 166 167 165 163 162 159 155 151 148 145 143 141 135 128 126 126 122 122 124 119 110 102 97 92
63 69 67 311 293 295 277 185 103 95 111 114 107 107 118 138 131 140 146 147 147 148 151 161 164 165 167 167 166 165 163 161 159 154 148 147 145 141 133 130 132 129 131 134 131 126 122 105 80
97 93 132 262 290 288 243 152 108 111 135 152 133 107 132 161 147 143 144 144 145 147 149 152 158 164 168 169 167 166 165 164 161 155 151 150 150 147 139 136 139 137 137 141 144 149 149 114 36
120 102 125 259 284 277 259 144 141 126 146 143 130 136 159 177 147 140 140 141 145 147 154 155 155 157 160 165 166 165 165 164 161 159 156 154 154 152 146 145 148 143 145 152 160 171 184 339 357
92 87 154 237 278 284 293 237 175 113 119 127 134 149 156 152 139 137 138 135 149 157 162 162 159 154 154 157 164 164 165 165 163 163 161 154 149 149 149 155 159 154 157 163 170 181 210 269 334
101 134 195 197 239 273 298 279 174 85 85 74 79 102 137 146 146 150 156 161 165 170 174 170 167 163 161 163 155 159 161 162 162 164 158 153 155 162 163 170 169 171 172 174 181 200 257 297 348
152 183 198 207 228 255 295 317 268 126 139 164 148 147 153 156 160 164 170 174 177 176 178 178 174 172 170 157 156 157 157 160 164 169 164 161 167 171 162 173 182 190 190 195 214 254 276 282 315
237 234 221 209 216 234 263 308 321 190 189 175 161 159 163 168 174 176 178 182 181 178 181 179 176 176 176 162 164 164 164 169 172 182 177 168 162 160 166 176 191 207 214 221 252 312 277 170 142
292 281 315 287 259 244 270 268 256 251 188 159 161 165 173 178 184 186 182 182 179 181 181 177 172 173 172 166 169 171 176 183 185 184 185 178 170 175 173 184 199 215 224 223 206 246 114 110 116
265 299 304 307 311 284 260 268 260 258 216 160 171 178 183 185 188 187 182 183 179 181 181 175 172 172 171 174 175 178 181 188 190 186 187 187 183 183 177 187 199 218 225 220 185 166 141 117 113
302 322 325 349 342 315 279 268 253 306 306 185 183 189 191 193 191 190 185 183 181 180 179 176 175 172 174 177 180 180 185 190 194 195 190 187 187 192 188 192 197 215 226 206 155 154 127 111 108
331 335 307 339 1 330 255 239 262 356 1 271 201 201 199 200 198 193 184 181 180 177 177 179 177 175 177 178 182 179 183 188 195 200 192 185 186 189 187 192 197 203 196 166 150 152 126 119 118
346 295 280 310 11 358 11 271 306 343 13 10 296 227 214 208 204 194 183 180 179 178 177 178 175 175 178 176 177 175 171 179 184 190 191 193 189 183 183 191 195 187 167 160 160 156 141 143 141
295 312 312 304 323 352 337 291 299 321 350 356 356 326 263 225 210 193 182 179 179 178 176 176 171 172 169 162 152 149 156 174 168 176 193 190 199 190 180 194 192 179 165 164 160 155 145 158 158
198 261 281 269 271 310 283 285 291 295 308 325 344 347 328 281 238 191 179 177 175 174 172 171 167 167 159 156 157 157 168 177 182 194 201 192 188 180 167 194 200 185 177 176 164 150 147 147 137
212 260 269 271 299 304 286 281 279 273 254 258 290 320 327 317 275 190 174 171 171 174 173 168 162 161 161 158 156 156 155 169 181 183 194 201 190 181 182 187 201 201 185 177 173 154 144 148 152
233 225 235 246 311 337 319 301 293 292 285 271 269 270 303 306 247 190 169 165 166 171 168 161 149 145 146 142 132 118 103 98 130 181 201 212 201 196 186 182 183 206 202 191 186 174 155 158 174
248 234 212 207 217 295 333 299 295 301 307 291 283 274 289 310 255 180 165 160 165 163 147 138 134 132 136 140 144 148 156 168 185 186 200 221 216 203 193 187 184 191 196 203 204 188 170 153 164
246 272 192 179 174 292 265 241 291 325 319 307 293 286 269 62 106 161 166 153 142 135 132 133 129 129 135 140 147 148 151 163 163 169 196 216 225 215 196 184 183 189 191 200 208 193 187 168 163
48 37 35 53 87 274 241 203 302 354 347 344 336 328 302 137 113 100 95 103 100 96 111 132 134 137 141 143 145 149 153 156 158 175 194 209 213 212 199 186 191 197 196 199 204 198 194 188 170
46 55 7 344 327 246 247 188 27 7 15 11 1 354 338 143 129 125 112 99 102 112 137 152 143 147 153 150 153 159 164 169 181 192 204 204 201 213 216 192 198 202 207 205 198 196 199 191 182
318 137 170 238 256 288 298 145 68 12 12 13 13 10 9 15 78 124 132 132 141 152 173 175 166 162 164 163 169 174 176 176 192 203 200 200 198 209 203 188 195 200 204 205 202 203 202 197 196
0 41 171 181 246 273 283 52 41 7 8 7 6 8 8 3 9 42 77 108 147 170 182 180 173 173 177 179 182 195 200 195 202 202 190 182 180 184 180 177 183 183 185 197 197 208 209 198 203
26 35 45 118 216 227 327 48 5 360 357 353 355 355 352 356 5 19 35 27 209 198 184 174 175 185 188 189 195 204 204 196 186 172 173 174 176 170 167 182 200 198 176 163 172 189 195 194 206
11 26 19 18 257 211 99 65 8 355 347 344 342 340 337 337 344 354 353 285 249 232 198 183 186 189 190 189 190 181 174 166 161 168 180 182 182 179 183 191 201 203 198 185 174 179 177 195 212
72 56 30 57 331 330 117 84 355 349 341 339 334 327 320 311 303 278 256 252 251 240 219 204 197 196 193 177 160 160 155 160 170 188 195 192 192 191 192 192 194 201 206 204 199 202 196 207 223
Height
1496 1495 1494 1494 1497 1507 1507 1499 1492 1489 1488 1488 1487 1489 1494 1498 1501 1508 1506 1506 1509 1510 1513 1515 1517 1519 1520 1521 1522 1523 1524 1525 1526 1526 1527 1528 1529 1529 1530 1530 1531 1531 1532 1532 1532 1532 1532 1533 1533
1496 1495 1495 1494 1506 1519 1510 1496 1491 1487 1488 1489 1490 1492 1494 1499 1500 1502 1503 1506 1509 1511 1513 1515 1518 1519 1520 1521 1523 1524 1525 1525 1526 1527 1528 1529 1530 1530 1530 1531 1531 1532 1532 1533 1533 1533 1533 1533 1534
1496 1495 1495 1497 1507 1514 1505 1494 1489 1486 1487 1487 1491 1494 1496 1500 1501 1502 1503 1507 1509 1511 1513 1516 1518 1519 1520 1522 1523 1524 1525 1526 1527 1528 1528 1529 1530 1531 1531 1531 1532 1532 1533 1533 1534 1534 1534 1534 1535
1496 1496 1497 1504 1507 1499 1493 1489 1486 1487 1488 1488 1491 1496 1499 1501 1501 1502 1504 1507 1510 1512 1514 1516 1518 1519 1520 1522 1523 1524 1525 1527 1528 1528 1529 1530 1531 1531 1531 1532 1532 1533 1533 1534 1535 1535 1535 1535 1536
1496 1497 1505 1511 1506 1496 1489 1485 1485 1486 1489 1490 1491 1498 1501 1502 1502 1503 1506 1509 1511 1512 1514 1516 1518 1519 1520 1522 1523 1524 1526 1527 1528 1528 1529 1530 1531 1532 1532 1532 1532 1533 1534 1534 1535 1536 1536 1537 1537
1496 1500 1515 1518 1507 1495 1488 1485 1485 1487 1490 1492 1493 1498 1503 1503 1503 1505 1507 1510 1512 1513 1515 1516 1518 1519 1520 1521 1523 1524 1525 1527 1527 1528 1529 1530 1531 1532 1532 1532 1533 1533 1534 1535 1536 1537 1537 1538 1538
1497 1505 1515 1514 1509 1499 1489 1485 1485 1487 1489 1491 1492 1498 1502 1504 1504 1505 1508 1510 1512 1514 1515 1516 1518 1519 1520 1521 1522 1523 1525 1526 1527 1528 1529 1531 1532 1532 1533 1533 1533 1534 1535 1536 1537 1537 1538 1538 1539
1497 1504 1514 1514 1509 1500 1487 1485 1485 1486 1488 1490 1491 1494 1499 1503 1504 1506 1509 1511 1513 1514 1515 1516 1518 1519 1520 1521 1522 1523 1525 1526 1528 1529 1530 1531 1532 1533 1533 1533 1534 1535 1536 1537 1537 1538 1538 1539 1539
1497 1508 1516 1512 1507 1498 1488 1486 1485 1486 1487 1489 1490 1491 1494 1500 1504 1506 1509 1511 1513 1514 1515 1516 1517 1519 1520 1521 1522 1523 1525 1526 1528 1529 1530 1531 1532 1533 1534 1534 1535 1536 1537 1537 1538 1539 1539 1540 1540
1496 1508 1507 1503 1499 1495 1490 1487 1485 1486 1488 1489 1491 1493 1496 1500 1503 1505 1507 1510 1512 1514 1515 1516 1517 1518 1519 1521 1522 1523 1524 1526 1527 1529 1530 1531 1532 1534 1534 1535 1535 1536 1537 1538 1539 1540 1540 1541 1541
1494 1500 1498 1497 1494 1493 1490 1487 1485 1486 1490 1489 1489 1492 1496 1499 1501 1503 1505 1508 1510 1512 1514 1515 1517 1518 1519 1520 1521 1522 1524 1525 1527 1529 1530 1531 1533 1534 1535 1535 1536 1537 1538 1539 1540 1540 1540 1541 1541
1492 1492 1492 1492 1492 1490 1488 1486 1485 1484 1485 1486 1487 1489 1493 1496 1498 1500 1502 1505 1508 1509 1511 1513 1515 1517 1519 1520 1521 1522 1523 1525 1526 1528 1530 1531 1533 1534 1535 1536 1537 1538 1539 1540 1540 1540 1540 1541 1541
1491 1490 1489 1488 1488 1487 1486 1485 1484 1483 1483 1484 1486 1488 1490 1492 1495 1498 1500 1503 1505 1507 1509 1511 1513 1516 1518 1519 1520 1521 1523 1525 1526 1528 1529 1531 1532 1534 1536 1537 1538 1539 1540 1540 1541 1541 1541 1542 1542
1490 1489 1487 1486 1486 1486 1485 1484 1483 1482 1483 1484 1485 1486 1487 1489 1491 1495 1498 1500 1503 1505 1507 1509 1511 1514 1516 1518 1519 1520 1522 1524 1526 1527 1528 1530 1532 1534 1536 1537 1539 1540 1540 1541 1541 1542 1543 1543 1543
1489 1489 1488 1487 1487 1485 1485 1485 1482 1482 1481 1482 1483 1483 1484 1485 1488 1490 1493 1496 1499 1502 1504 1506 1509 1512 1515 1517 1519 1520 1521 1523 1524 1526 1528 1529 1531 1533 1535 1537 1538 1539 1540 1541 1541 1542 1543 1544 1544
1490 1494 1498 1492 1489 1486 1488 1491 1481 1481 1478 1478 1481 1480 1480 1481 1483 1486 1490 1493 1496 1499 1501 1504 1506 1509 1512 1515 1517 1519 1520 1521 1523 1525 1527 1528 1530 1532 1534 1535 1537 1538 1539 1540 1541 1542 1543 1544 1544
1500 1505 1502 1496 1491 1489 1490 1489 1481 1481 1478 1477 1478 1479 1478 1478 1480 1483 1486 1489 1493 1496 1498 1501 1503 1506 1510 1513 1515 1517 1519 1520 1522 1524 1526 1527 1529 1530 1532 1533 1535 1536 1537 1539 1540 1541 1542 1543 1544
1509 1506 1504 1500 1493 1491 1492 1489 1481 1480 1479 1476 1475 1475 1475 1475 1475 1477 1482 1486 1490 1493 1495 1498 1500 1503 1507 1510 1513 1515 1517 1518 1520 1522 1524 1525 1527 1528 1529 1531 1533 1534 1535 1536 1538 1539 1541 1542 1543
1501 1503 1504 1498 1492 1492 1492 1488 1480 1476 1476 1474 1472 1472 1472 1471 1471 1473 1477 1481 1486 1490 1493 1495 1498 1501 1504 1507 1510 1512 1513 1515 1517 1519 1521 1522 1524 1526 1527 1528 1530 1531 1533 1534 1535 1537 1538 1540 1542
1497 1502 1502 1496 1492 1491 1492 1487 1478 1473 1472 1471 1470 1469 1469 1468 1468 1469 1472 1477 1481 1485 1488 1491 1494 1497 1500 1503 1506 1509 1511 1513 1514 1516 1518 1520 1521 1523 1524 1525 1526 1528 1529 1531 1532 1533 1535 1537 1539
1497 1500 1499 1499 1494 1492 1495 1492 1481 1472 1469 1468 1467 1467 1466 1466 1466 1467 1469 1472 1476 1480 1484 1487 1491 1495 1498 1501 1504 1506 1508 1509 1511 1513 1515 1517 1519 1520 1521 1522 1523 1524 1525 1527 1528 1529 1531 1533 1535
1499 1489 1490 1493 1501 1506 1501 1509 1488 1477 1472 1467 1465 1464 1463 1463 1464 1465 1467 1469 1473 1476 1480 1485 1489 1493 1496 1499 1501 1502 1504 1505 1507 1509 1512 1514 1516 1517 1517 1518 1519 1520 1521 1523 1524 1525 1527 1529 1531
1490 1485 1489 1493 1500 1507 1504 1509 1496 1481 1478 1470 1465 1463 1460 1460 1463 1465 1467 1468 1471 1474 1478 1483 1488 1491 1494 1496 1497 1499 1501 1503 1505 1507 1509 1511 1512 1513 1514 1514 1515 1516 1517 1519 1521 1521 1523 1525 1527
1487 1490 1494 1500 1506 1515 1504 1508 1503 1494 1487 1477 1469 1464 1459 1457 1462 1466 1468 1469 1472 1475 1480 1484 1487 1489 1492 1493 1495 1496 1499 1501 1503 1505 1507 1508 1510 1510 1510 1511 1511 1512 1513 1514 1516 1517 1518 1521 1523
1492 1505 1517 1518 1519 1515 1498 1502 1505 1498 1491 1486 1478 1469 1463 1459 1460 1465 1469 1470 1474 1478 1483 1486 1487 1488 1490 1492 1493 1495 1497 1499 1501 1503 1505 1506 1507 1508 1508 1508 1508 1508 1509 1510 1511 1512 1513 1516 1518
1498 1504 1519 1527 1523 1512 1498 1501 1505 1499 1493 1488 1482 1474 1468 1466 1464 1465 1467 1470 1475 1479 1484 1486 1487 1488 1489 1491 1493 1495 1497 1499 1500 1502 1503 1504 1505 1506 1506 1505 1505 1505 1505 1505 1506 1508 1509 1511 1513
1503 1506 1506 1515 1514 1517 1507 1501 1499 1496 1491 1488 1484 1479 1475 1473 1471 1469 1470 1472 1475 1479 1483 1485 1487 1488 1489 1491 1493 1495 1497 1498 1500 1501 1502 1503 1504 1504 1503 1503 1502 1502 1501 1502 1502 1503 1505 1506 1508
1508 1509 1513 1516 1518 1518 1510 1511 1514 1506 1501 1495 1489 1485 1481 1478 1476 1474 1474 1475 1479 1481 1483 1486 1488 1489 1490 1492 1493 1495 1496 1498 1499 1500 1501 1502 1502 1502 1502 1501 1501 1500 1500 1499 1500 1500 1501 1502 1504
1516 1516 1517 1517 1516 1517 1518 1522 1518 1514 1508 1502 1495 1490 1486 1483 1479 1478 1478 1478 1480 1481 1483 1485 1487 1489 1490 1492 1493 1495 1496 1498 1499 1500 1500 1501 1501 1500 1500 1500 1500 1499 1499 1498 1498 1498 1498 1498 1500
1516 1520 1521 1523 1519 1514 1517 1527 1518 1515 1510 1504 1498 1492 1486 1484 1483 1481 1480 1479 1479 1481 1483 1484 1486 1488 1490 1492 1493 1495 1496 1498 1499 1500 1500 1500 1500 1499 1499 1499 1499 1499 1498 1498 1497 1496 1496 1496 1496